Terminal Aerodrome Forecast
Issued by NWS

Home | Current Version | Previous Version | Text Only | Print | Product List | Glossary On
Versions: 1 2 3 4 5 6 7 8 9 10 11 12 13 14 15 16 17
000
FTUS44 KLIX 222324
TAFHUM
TAF
KHUM 222324Z 2300/2324 09006KT P6SM VCSH SCT015 OVC120
     FM230400 18007KT P6SM SHRA VCTS BKN015CB OVC035
     FM231100 22008KT P6SM SHRA VCTS BKN010CB OVC030
     FM231500 25009KT P6SM SHRA VCTS OVC015CB
      AMD NOT SKED=

USA.gov is the U.S. government's official web portal to all federal, state and local government web resources and services.